Regional Weather Roundup
Issued by NWS

Home | Current Version | Previous Version | Text Only | Print | Product List | Glossary Off
Versions: 1 2 3 4 5 6 7 8 9 10 11 12 13 14 15 16 17 18 19 20 21 22 23 24 25 26 27 28 29 30 31 32 33 34 35 36 37 38 39 40 41 42 43 44 45 46 47 48 49 50

000
ASUS45 KSLC 240210
RWRUT

UTAH REGIONAL WEATHER ROUNDUP
NATIONAL WEATHER SERVICE SALT LAKE CITY UT
800 PM MDT MON APR 23 2018

UTZ001>011-023>025-240300-

NORTHERN UTAH

CITY           SKY/WX    TMP DP  RH WIND       PRES   REMARKS
BRIGHAM CITY   CLEAR     59  24  26 N15       30.17S
HILL AFB       CLEAR     58  25  28 N13       30.16S
LOGAN          CLEAR     52  33  48 N15       30.19R
OGDEN          CLEAR     58  25  28 N15       30.15R
SALT LAKE CITY PTCLDY    60  26  27 N7        30.14S
TOOELE VALLEY  CLEAR     55  27  33 CALM      30.16S
WENDOVER       CLEAR     64  16  15 N12       30.14R
HEBER CITY       N/A     54  18  24 N15       30.15R
WEST JORDAN    CLEAR     56  26  31 W8        30.17R

$$

UTZ011>015-024>027-240300-

CENTRAL/NORTHEAST UTAH

CITY           SKY/WX    TMP DP  RH WIND       PRES   REMARKS
PROVO AIRPORT  PTCLDY    59  23  25 N14G25    30.14R
MOAB/CANYONLAN CLOUDY    72  27  18 W10G20    29.98S
DELTA          MOCLDY    63  23  22 N13       30.10S
PRICE          MOCLDY    60  26  27 NW15      30.10R
RICHFIELD      MOCLDY    66  30  26 E8        30.09R
ROOSEVELT      CLOUDY    64  14  14 W17G25    30.09S
VERNAL         CLOUDY    63  20  19 NE10      30.06R

$$

UTZ013>016-019>022-027-240300-

SOUTHERN UTAH

CITY           SKY/WX    TMP DP  RH WIND       PRES   REMARKS
BRYCE CANYON   MOCLDY    60  17  18 W13G21    30.18R
CEDAR CITY     MOCLDY    64  35  34 N8        30.07R
MILFORD        MOCLDY    65  38  36 MISG      30.05S
ST GEORGE      PTCLDY    83  20   9 W8        29.91S
HANKSVILLE     CLOUDY    75  27  16 NW10      30.00R
KANAB          CLEAR     73  16  11 W13       30.06R
BLANDING         N/A     69  16  13 W9        30.12S

$$

REGIONAL REPORTS     COLORADO/ARIZONA

CITY           SKY/WX    TMP DP  RH WIND       PRES   REMARKS
CRAIG, CO      CLOUDY    56  33  42 NW6       30.12R
GRAND JUNCTION CLOUDY    71  25  17 NW32G40   29.98R
RIFLE, CO      CLOUDY    67  28  23 NW9       30.02R
MONTROSE, CO   CLOUDY    67  17  14 N5        30.02S
CORTEZ, CO     MOCLDY    67   7   9 W6        30.07R
COLORADO CITY    N/A     73  19  13 W7        30.06S
PAGE, AZ       CLEAR     80  19  10 W9G21     29.95R
GRAND CANYON   CLEAR     67  14  13 W8        30.14S
KINGMAN, AZ    CLEAR     81  22  11 SW14      29.97F
FLAGSTAFF, AZ  CLEAR     63  19  18 SW14      30.18R

$$

REGIONAL REPORTS    NEVADA/IDAHO/WYOMING

CITY           SKY/WX    TMP DP  RH WIND       PRES   REMARKS
LAS VEGAS, NV  PTCLDY    89  22   8 SW10      29.85S
ELY, NY        PTCLDY    61  11  14 N10       30.14F
ELKO, NV       CLEAR     61  19  19 N10       30.16S
POCATELLO, ID  PTCLDY    49  37  63 NE9       30.27R
BURLEY, ID     MOCLDY    52  35  52 E14G21    30.22R
FORT BRIDGER,    N/A     47  19  32 NW10G18   30.24R
EVANSTON, WY   CLEAR     46  22  38 NW12      30.22R
ROCK SPRINGS,  CLOUDY    40  25  55 NE20G29   30.21R WCI  30
KEMMERER, WY   CLEAR     43  21  42 NW12      30.23R

$$



USA.gov is the U.S. government's official web portal to all federal, state and local government web resources and services.